Wind_Speed
52 53 55 52 51 51 55 54 51 51 54 52 53 52 47 47 45 44 41 39 39 39 40 41 32 33 35 34 35 36 37 38 40 40 41 41 41 41 41 42 43 43 45 46
53 54 50 49 48 48 51 50 49 49 53 53 52 56 50 51 46 43 43 43 41 41 41 41 34 38 37 38 39 39 40 41 42 43 45 45 45 46 46 46 46 46 47 49
54 53 51 52 50 49 49 49 48 49 51 54 54 58 54 52 52 51 47 45 45 45 45 43 40 41 42 43 43 43 42 43 43 44 46 48 50 51 51 51 51 51 52 53
58 57 55 54 54 52 50 50 48 50 54 55 54 62 58 56 54 52 51 49 49 50 49 47 46 47 48 47 47 47 47 46 48 49 51 52 54 54 55 55 56 56 57 57
59 59 59 56 54 54 52 52 53 54 55 58 57 62 60 55 56 53 53 54 53 53 51 51 51 51 51 51 51 52 51 53 54 55 54 54 56 58 59 61 62 62 62 62
65 61 60 60 59 58 58 56 56 56 57 64 61 62 64 60 57 57 56 55 55 53 53 53 53 53 52 53 55 58 62 61 58 57 57 58 59 60 62 64 65 66 66 65
69 71 64 59 59 60 60 60 59 61 63 65 65 63 64 61 61 59 57 57 56 56 56 54 54 54 55 60 66 68 67 66 65 66 64 62 62 63 63 63 63 63 64 65
51 60 71 69 61 56 56 59 59 58 61 62 62 65 64 63 60 61 58 59 57 55 55 55 57 58 63 68 69 69 72 69 67 65 64 64 64 63 63 63 64 63 64 65
48 52 55 64 63 55 54 59 53 56 60 64 65 65 64 61 61 58 59 60 57 56 56 58 60 64 67 70 71 70 68 67 66 66 66 64 64 64 65 64 63 63 65 66
52 50 51 55 55 58 59 55 54 58 61 62 65 64 61 59 59 61 59 57 58 59 64 68 69 69 70 71 71 70 69 68 66 64 64 64 64 65 64 64 65 66 66 66
49 53 55 55 52 51 57 59 59 56 58 59 63 63 58 57 60 64 67 65 66 65 65 66 66 64 65 67 66 65 64 63 64 65 65 65 64 65 65 65 65 65 64 63
44 50 49 48 50 52 51 52 58 61 62 62 64 71 63 63 67 69 71 72 66 60 58 55 55 57 60 61 61 62 62 64 64 64 65 66 66 65 64 64 63 62 61 58
45 52 52 50 51 52 55 57 56 55 53 55 56 58 47 56 58 58 58 59 61 59 56 56 58 59 59 60 62 63 64 64 64 64 65 64 64 64 62 60 59 58 56 55
42 46 52 54 48 50 51 51 52 53 54 56 59 59 54 56 57 57 60 60 60 62 59 59 57 59 59 60 61 62 61 62 63 63 62 61 60 58 56 55 54 54 54 54
49 46 44 45 43 47 54 55 53 49 51 54 54 54 51 51 54 55 56 57 59 57 52 53 54 55 58 59 60 61 62 62 63 62 60 58 55 53 51 51 52 53 54 54
54 52 51 51 46 48 53 55 56 57 56 58 58 61 52 52 51 53 54 54 57 60 59 59 58 59 59 59 61 60 59 59 60 60 60 56 53 52 52 53 53 53 53 53
54 51 51 55 54 53 55 53 57 55 53 55 56 54 50 53 55 55 56 57 57 61 62 62 61 58 58 58 59 58 58 58 59 58 57 56 55 53 53 53 53 53 52 52
49 46 46 50 51 58 55 49 50 55 57 55 56 52 49 51 53 56 60 62 63 62 64 66 65 62 60 59 57 55 55 56 57 58 58 58 57 56 55 54 52 52 52 54
48 50 52 52 53 52 54 46 46 50 56 57 59 56 56 55 56 60 57 59 63 63 62 63 64 63 61 61 59 58 57 59 61 60 58 55 54 53 53 53 53 54 54 54
46 49 51 52 55 52 46 39 45 51 58 45 48 51 51 52 57 63 61 62 61 58 60 62 65 66 64 61 58 57 57 55 54 53 53 53 54 53 54 55 55 54 55 56
43 45 47 50 57 58 48 46 51 56 51 44 47 47 49 50 52 53 54 58 58 60 62 61 63 64 62 61 58 56 55 55 55 53 52 51 51 52 55 56 57 58 59 60
43 46 51 51 58 64 51 55 56 50 52 55 54 52 53 47 50 53 59 60 61 61 56 57 61 62 63 61 58 54 57 58 55 52 52 52 54 55 57 59 62 63 63 64
44 45 41 45 49 48 47 52 50 52 55 53 54 57 57 56 56 59 56 50 46 46 51 55 55 59 58 57 60 61 62 65 62 58 58 58 58 60 62 64 66 66 66 66
47 46 49 45 44 45 50 53 54 56 57 57 59 60 62 64 65 62 65 65 63 65 63 64 58 61 60 56 56 66 65 64 63 62 58 56 59 63 66 66 66 68 70 72
38 42 43 48 48 49 51 54 56 58 60 61 64 66 66 65 63 63 64 65 60 56 57 61 62 64 69 62 61 61 62 61 61 61 62 63 62 64 67 71 73 73 74 76
31 36 43 46 48 57 58 59 63 65 65 66 66 67 66 63 62 62 61 56 53 54 54 58 58 63 65 70 64 64 61 65 66 66 64 63 67 71 71 71 73 75 78 79
Wind_Direction
239 239 241 244 245 246 245 244 245 248 246 239 237 232 232 235 233 234 238 240 243 246 252 256 260 264 263 265 267 269 271 274 274 275 276 277 279 280 280 281 282 284 287 288
240 241 242 244 242 242 245 243 241 242 243 243 239 236 232 238 238 240 241 243 247 249 254 259 263 265 267 268 268 269 271 272 274 275 276 277 278 279 280 281 282 283 283 283
241 241 241 242 244 242 244 246 245 243 240 243 240 237 236 237 239 240 242 247 252 255 257 261 265 265 267 269 271 272 273 275 276 278 280 279 279 278 278 279 279 279 279 280
240 239 239 242 242 243 243 247 247 249 245 241 242 240 237 239 242 243 245 247 250 255 258 262 264 265 266 267 270 270 273 276 278 280 280 280 280 279 279 279 279 279 280 279
241 242 242 240 244 245 246 245 246 248 250 248 244 244 239 240 242 246 249 250 252 254 258 262 264 265 265 267 269 270 273 278 280 281 281 281 280 280 280 281 281 280 280 281
237 240 242 240 240 242 244 245 247 247 248 249 247 249 242 243 244 247 249 251 254 258 260 263 264 264 266 268 271 273 278 282 280 279 279 280 279 279 279 279 280 281 281 281
237 238 242 246 246 245 245 246 248 249 248 250 252 250 251 254 252 253 254 258 260 260 263 262 262 263 267 270 273 276 276 280 278 277 277 278 278 278 278 278 278 279 280 281
240 240 239 242 244 248 251 251 252 256 257 255 253 253 251 253 257 260 260 259 259 261 261 262 262 263 267 271 273 273 275 276 275 275 276 278 278 277 276 277 279 280 281 282
246 246 243 238 242 245 246 248 254 254 256 256 254 251 251 253 256 255 257 260 262 262 260 261 263 266 266 270 274 274 274 273 273 275 276 277 276 276 278 279 280 281 280 280
241 241 242 241 241 243 247 246 246 248 250 252 255 254 254 254 259 261 258 258 260 260 263 268 269 267 268 269 270 272 272 273 274 275 275 276 277 277 279 280 280 280 280 280
242 245 246 245 242 247 249 248 250 253 252 255 255 253 252 255 258 258 260 261 266 267 266 266 266 267 267 267 268 269 270 272 274 275 275 276 278 279 280 280 280 281 281 280
244 246 248 251 253 248 248 248 248 251 254 257 258 252 256 260 260 263 265 266 265 263 264 266 265 264 265 267 269 271 272 272 273 275 277 278 279 280 281 281 280 280 280 280
237 238 243 244 247 246 246 247 250 253 253 254 255 258 255 254 258 261 264 267 267 263 262 265 266 268 270 272 272 272 274 276 276 276 277 279 280 279 278 278 278 278 277 276
232 234 239 245 251 259 256 255 257 259 259 257 258 256 252 258 261 263 263 265 268 270 270 271 273 273 272 273 273 273 273 274 276 277 278 277 278 278 278 278 277 276 276 276
235 238 238 242 244 253 257 255 252 251 258 259 267 265 257 261 266 265 270 274 272 271 271 271 270 270 270 271 273 275 276 278 278 278 278 278 277 277 276 276 275 276 277 278
240 244 246 243 250 262 256 260 259 260 259 257 264 264 267 266 269 271 269 267 270 273 273 271 272 274 277 277 276 277 277 277 277 278 278 279 278 277 277 277 277 277 278 279
238 238 247 256 257 258 250 254 262 262 261 264 262 266 263 261 262 265 265 265 268 272 271 271 275 274 273 272 273 273 274 276 277 277 278 278 277 279 279 279 280 281 281 279
246 251 252 253 247 247 259 249 252 262 262 258 262 266 266 262 259 259 261 267 266 266 270 271 272 273 271 270 271 273 273 273 273 274 275 277 279 280 279 280 280 280 280 281
245 250 247 251 256 261 257 258 259 261 260 262 264 267 266 264 263 258 260 263 268 268 268 267 267 269 271 270 269 271 271 270 272 275 276 277 278 279 281 281 281 281 283 284
239 244 250 255 257 258 262 262 260 262 263 258 265 270 269 269 268 265 263 263 264 266 270 272 269 269 270 273 274 273 273 273 272 272 273 275 276 277 278 280 281 282 283 283
245 249 250 258 260 263 267 268 258 255 266 271 268 273 274 272 271 273 269 265 265 267 271 273 272 273 273 274 274 275 271 271 271 271 271 273 276 278 280 281 281 282 282 283
256 256 257 262 260 260 270 259 270 273 272 268 266 272 271 277 277 274 268 266 263 267 265 271 270 268 267 271 275 277 276 271 268 271 274 276 277 279 281 282 283 284 285 286
251 261 267 261 264 269 264 267 267 269 275 271 269 269 268 270 270 269 265 267 263 266 266 269 277 273 271 272 273 275 277 272 268 270 274 276 278 280 281 283 284 286 285 286
248 259 266 267 275 279 271 268 270 271 267 266 266 267 266 267 270 270 271 277 274 276 279 281 277 274 271 271 270 272 270 268 273 276 278 280 284 283 281 283 286 285 285 287
256 260 271 275 277 279 273 272 270 268 267 267 270 271 271 270 270 273 273 276 280 282 281 280 277 277 277 276 269 272 278 276 277 278 278 279 281 282 281 282 283 284 285 287
271 271 269 275 276 270 270 266 264 265 265 267 269 269 268 268 271 272 273 274 275 275 279 278 276 277 275 276 277 269 273 277 279 282 281 279 279 279 282 284 285 285 287 288
Height
5739 5743 5748 5756 5760 5764 5765 5771 5776 5780 5783 5791 5794 5800 5806 5808 5812 5816 5820 5824 5826 5827 5828 5827 5837 5837 5836 5838 5838 5838 5838 5838 5837 5837 5836 5836 5835 5834 5833 5833 5831 5830 5827 5826
5731 5735 5743 5746 5750 5755 5756 5762 5766 5769 5775 5782 5786 5790 5798 5798 5804 5811 5813 5815 5818 5820 5820 5821 5828 5826 5828 5828 5829 5829 5829 5829 5829 5829 5828 5827 5826 5825 5824 5823 5822 5821 5818 5816
5721 5728 5732 5737 5741 5746 5750 5753 5757 5760 5764 5770 5776 5779 5787 5791 5794 5797 5805 5810 5810 5812 5812 5814 5818 5818 5818 5818 5819 5819 5819 5819 5819 5818 5818 5817 5815 5814 5812 5812 5810 5808 5807 5805
5710 5716 5723 5727 5732 5737 5740 5744 5749 5752 5753 5760 5763 5766 5777 5783 5787 5790 5795 5799 5801 5802 5803 5805 5808 5808 5808 5808 5808 5809 5809 5809 5809 5808 5807 5806 5804 5803 5801 5800 5798 5796 5794 5792
5704 5709 5713 5720 5725 5729 5733 5735 5739 5742 5743 5745 5753 5755 5767 5774 5779 5784 5786 5787 5790 5792 5795 5797 5797 5797 5797 5797 5797 5798 5798 5798 5798 5797 5795 5794 5793 5791 5789 5788 5785 5783 5780 5779
5691 5696 5701 5708 5713 5716 5719 5725 5728 5730 5732 5732 5742 5746 5756 5764 5770 5772 5775 5777 5780 5784 5785 5785 5785 5786 5786 5786 5786 5786 5786 5786 5785 5784 5783 5781 5779 5778 5775 5772 5770 5768 5766 5764
5681 5685 5693 5699 5704 5706 5710 5714 5716 5716 5718 5726 5730 5737 5748 5753 5757 5762 5766 5766 5769 5771 5772 5773 5773 5773 5773 5774 5774 5773 5773 5772 5772 5770 5768 5767 5765 5763 5760 5757 5755 5753 5751 5749
5668 5673 5682 5690 5694 5699 5701 5705 5707 5709 5711 5716 5719 5725 5736 5742 5748 5748 5753 5754 5756 5757 5758 5759 5760 5760 5761 5761 5760 5759 5758 5756 5755 5754 5753 5752 5749 5747 5746 5744 5742 5740 5737 5733
5663 5664 5669 5677 5682 5686 5691 5690 5699 5697 5699 5699 5706 5718 5722 5731 5732 5735 5738 5740 5745 5745 5746 5746 5746 5746 5746 5746 5745 5743 5742 5741 5740 5740 5738 5737 5734 5732 5730 5728 5726 5723 5719 5715
5648 5652 5655 5662 5668 5671 5676 5683 5683 5683 5685 5687 5696 5702 5716 5720 5724 5722 5727 5727 5731 5731 5732 5731 5731 5730 5729 5728 5728 5728 5728 5727 5726 5724 5721 5720 5718 5717 5715 5713 5710 5706 5702 5698
5641 5642 5648 5651 5658 5665 5667 5668 5674 5675 5676 5678 5685 5692 5706 5711 5711 5709 5707 5715 5714 5716 5716 5714 5713 5713 5712 5712 5712 5712 5712 5712 5710 5707 5706 5704 5702 5700 5697 5693 5690 5687 5684 5681
5635 5630 5635 5644 5648 5652 5653 5657 5659 5661 5668 5668 5671 5677 5698 5700 5695 5694 5694 5695 5698 5698 5698 5698 5698 5697 5697 5698 5698 5698 5697 5694 5693 5691 5690 5687 5684 5681 5678 5676 5673 5670 5668 5665
5622 5620 5625 5630 5635 5637 5640 5647 5651 5652 5654 5654 5658 5672 5693 5683 5681 5682 5682 5678 5678 5682 5684 5682 5682 5683 5683 5683 5680 5679 5677 5677 5675 5674 5672 5670 5667 5664 5662 5660 5658 5656 5653 5651
5608 5611 5615 5620 5632 5630 5632 5636 5638 5638 5636 5644 5644 5661 5670 5669 5669 5670 5664 5666 5666 5661 5665 5667 5668 5665 5663 5662 5661 5662 5661 5660 5659 5659 5657 5653 5650 5648 5646 5645 5643 5641 5639 5637
5598 5602 5608 5615 5618 5616 5617 5621 5624 5623 5631 5629 5644 5642 5661 5660 5654 5650 5651 5651 5644 5645 5651 5651 5648 5646 5647 5648 5647 5646 5645 5643 5641 5640 5639 5637 5635 5633 5631 5630 5628 5626 5624 5622
5589 5596 5599 5602 5608 5608 5607 5605 5610 5617 5622 5618 5627 5626 5648 5646 5643 5638 5636 5632 5626 5626 5634 5634 5632 5632 5634 5634 5631 5630 5628 5625 5623 5622 5621 5621 5619 5618 5616 5614 5613 5611 5609 5606
5576 5584 5585 5587 5597 5593 5588 5601 5600 5604 5608 5610 5607 5621 5627 5630 5629 5627 5621 5614 5616 5615 5615 5616 5615 5617 5617 5615 5614 5613 5612 5610 5608 5607 5606 5605 5603 5602 5600 5599 5597 5595 5593 5591
5567 5572 5573 5575 5579 5571 5585 5594 5594 5592 5593 5595 5596 5605 5612 5609 5612 5611 5603 5604 5603 5600 5602 5603 5599 5599 5601 5599 5597 5596 5595 5594 5593 5592 5590 5589 5588 5587 5585 5583 5581 5579 5576 5574
5557 5561 5562 5562 5563 5568 5569 5585 5585 5582 5582 5584 5585 5590 5590 5592 5591 5589 5598 5588 5586 5587 5586 5586 5587 5584 5583 5582 5582 5580 5579 5579 5578 5577 5575 5574 5572 5571 5570 5568 5566 5563 5561 5559
5546 5549 5552 5553 5551 5551 5565 5574 5573 5568 5556 5579 5577 5573 5574 5575 5565 5571 5579 5572 5572 5573 5571 5571 5572 5571 5568 5566 5565 5565 5564 5564 5563 5562 5560 5559 5557 5555 5554 5552 5550 5548 5545 5542
5537 5539 5539 5542 5540 5540 5555 5560 5560 5550 5560 5570 5563 5560 5558 5556 5557 5556 5558 5559 5559 5560 5559 5557 5556 5556 5555 5553 5551 5550 5549 5549 5547 5546 5545 5543 5542 5540 5539 5536 5534 5531 5529 5526
5526 5527 5528 5531 5529 5528 5551 5543 5544 5551 5544 5548 5548 5546 5543 5542 5542 5541 5541 5541 5543 5544 5544 5542 5541 5541 5540 5538 5537 5537 5535 5533 5533 5531 5530 5528 5526 5524 5522 5519 5517 5515 5512 5508
5514 5520 5520 5519 5520 5527 5533 5530 5532 5532 5531 5532 5531 5532 5528 5527 5529 5528 5529 5528 5528 5528 5530 5529 5528 5526 5525 5524 5524 5523 5520 5519 5517 5516 5514 5512 5509 5507 5504 5502 5499 5496 5493 5489
5506 5510 5504 5507 5514 5518 5519 5518 5517 5516 5513 5512 5512 5513 5513 5512 5511 5512 5511 5510 5511 5511 5512 5514 5512 5512 5509 5509 5509 5507 5505 5504 5502 5500 5498 5495 5493 5490 5488 5484 5481 5477 5473 5469
5500 5498 5500 5494 5502 5502 5502 5503 5501 5498 5496 5495 5495 5494 5495 5494 5494 5494 5495 5494 5494 5493 5493 5494 5493 5493 5494 5493 5491 5491 5488 5487 5485 5483 5481 5479 5476 5473 5469 5465 5461 5457 5453 5449
5493 5489 5484 5485 5491 5482 5486 5487 5482 5479 5479 5478 5476 5476 5475 5475 5476 5476 5476 5476 5476 5476 5476 5476 5475 5476 5476 5475 5474 5473 5471 5470 5468 5466 5464 5461 5457 5453 5450 5446 5442 5437 5432 5427